Change the Weather History Date:

Friday, December 6, 2013

  Actual Average Record
Temperature  
Mean Temperature -10 °F 20 °F  
Max Temperature 0 °F 33 °F 49 °F (2014)
Min Temperature -20 °F 8 °F -20 °F (2013)
Degree Days  
Heating Degree Days 75 44  
Month to date heating degree days 323 260  
Since 1 July heating degree days 2227 2345  
Cooling Degree Days 0 0  
Month to date cooling degree days 0 0  
Year to date cooling degree days 377 142  
Moisture  
Dew Point -17 °F    
Average Humidity 71    
Maximum Humidity 81    
Minimum Humidity 61    
Precipitation  
Precipitation T in 0.04 in 0.17 in (2007)
Month to date precipitation T 0.23  
Year to date precipitation 12.45 15.29  
Sea Level Pressure  
Sea Level Pressure 30.37 in    
Wind  
Wind Speed 1 mph (SSW)    
Max Wind Speed 8 mph    
Max Gust Speed 10 mph    
Visibility 8 miles    
Events Snow    
T = Trace of Precipitation, MM = Missing Value Source: NWS Daily Summary

Daily Weather History Graph

Daily Weather History Graph

Search for Another Location

Airport or City:

Trip Planner

Search our weather history database for the weather conditions in past years. The results will help you decide how hot, cold, wet, or windy it might be!

Date:

Astronomy

Dec. 06, 2013 Rise Set
Actual Time 7:19 AM MST 4:43 PM MST
Civil Twilight 6:48 AM MST 5:13 PM MST
Nautical Twilight 6:14 AM MST 5:47 PM MST
Astronomical Twilight 5:41 AM MST 6:20 PM MST
Moon 10:26 AM MST (12/6) 9:19 PM MST (12/6)
Length of Visible Light 10h 25m
Length of Day
9h 23m
Waxing Crescent, 20% of the Moon is Illuminated
Dec 6
Waxing Crescent
Dec 9
First Quarter
Dec 17
Full
Dec 25
Last Quarter
Jan 1
New

Hourly Weather History & Observations

Time (MST) Temp. Windchill Dew Point Humidity Pressure Visibility Wind Dir Wind Speed Gust Speed Precip Events Conditions
12:53 AM -18.0 °F - -26.0 °F 67% 30.41 in 10.0 mi Calm Calm - N/A   Overcast
1:53 AM -17.0 °F - -26.0 °F 64% 30.40 in 10.0 mi Calm Calm - N/A   Overcast
2:53 AM -17.0 °F - -25.1 °F 67% 30.42 in 10.0 mi Calm Calm - N/A   Overcast
3:53 AM -18.0 °F - -26.0 °F 67% 30.45 in 10.0 mi Calm Calm - N/A   Mostly Cloudy
4:53 AM -18.0 °F - -26.0 °F 67% 30.48 in 5.0 mi Calm Calm - N/A   Haze
5:53 AM -15.0 °F - -23.1 °F 67% 30.51 in 7.0 mi Calm Calm - N/A   Overcast
6:53 AM -14.1 °F - -22.0 °F 68% 30.52 in 2.5 mi Calm Calm - 0.00 in Snow Light Snow
7:04 AM -13.0 °F - -22.0 °F 64% 30.02 in 4.0 mi Calm Calm - 0.00 in Snow Light Snow
7:37 AM -13.0 °F - -22.0 °F 64% 30.02 in 2.5 mi Calm Calm - 0.00 in   Haze
7:53 AM -13.0 °F -22.7 °F -22.0 °F 64% 30.54 in 2.0 mi ESE 3.5 mph - 0.00 in Snow Light Snow
8:26 AM -11.0 °F - -20.0 °F 64% 30.04 in 4.0 mi Calm Calm - 0.00 in   Haze
8:53 AM -9.9 °F - -18.9 °F 65% 30.55 in 3.0 mi Calm Calm - 0.00 in Snow Light Snow
8:58 AM -9.9 °F - -18.9 °F 65% 30.05 in 2.5 mi Calm Calm - 0.00 in Snow Light Snow
9:07 AM -9.9 °F - -18.9 °F 65% 30.05 in 2.5 mi Calm Calm - 0.00 in Snow Light Snow
9:15 AM -9.9 °F - -18.9 °F 65% 30.06 in 5.0 mi Calm Calm - 0.00 in   Haze
9:49 AM -7.6 °F - -16.6 °F 65% 30.06 in 8.0 mi Calm Calm - 0.00 in   Overcast
9:53 AM -6.0 °F - -14.1 °F 68% 30.54 in 8.0 mi Calm Calm - 0.00 in   Overcast
10:53 AM -4.0 °F - -14.1 °F 62% 30.53 in 8.0 mi Calm Calm - N/A   Overcast
11:43 AM -4.0 °F - -11.9 °F 69% 30.04 in 4.0 mi Calm Calm - N/A   Haze
11:53 AM -2.9 °F - -11.0 °F 68% 30.50 in 6.0 mi Calm Calm - N/A   Haze
12:39 PM -0.9 °F -8.9 °F -9.9 °F 66% 30.03 in 10.0 mi SSW 3.5 mph - N/A   Overcast
12:53 PM -0.9 °F -8.9 °F -9.9 °F 66% 30.46 in 10.0 mi SSW 3.5 mph - N/A   Overcast
1:34 PM -2.9 °F - -9.9 °F 72% 30.02 in 10.0 mi Calm Calm - N/A   Mostly Cloudy
1:53 PM -2.0 °F - -9.0 °F 72% 30.45 in 10.0 mi Calm Calm - N/A   Overcast
2:07 PM -0.0 °F - -9.0 °F 66% 30.01 in 10.0 mi Calm Calm - N/A   Overcast
2:53 PM -2.0 °F - -9.0 °F 72% 30.44 in 10.0 mi Calm Calm - N/A   Overcast
3:53 PM -4.0 °F - -9.9 °F 76% 30.46 in 10.0 mi Calm Calm - N/A   Overcast
4:53 PM -4.0 °F - -9.9 °F 76% 30.48 in 10.0 mi Calm Calm - N/A   Overcast
5:53 PM -5.1 °F -15.8 °F -11.0 °F 76% 30.47 in 10.0 mi SW 4.6 mph - N/A   Overcast
6:53 PM -11.0 °F -20.4 °F -16.1 °F 78% 30.51 in 10.0 mi WSW 3.5 mph - N/A   Clear
7:53 PM -15.0 °F - -18.0 °F 86% 30.53 in 10.0 mi Calm Calm - N/A   Partly Cloudy
8:53 PM -11.9 °F -21.5 °F -16.1 °F 82% 30.50 in 10.0 mi WSW 3.5 mph - N/A   Overcast
9:53 PM -8.0 °F - -13.0 °F 79% 30.47 in 10.0 mi Calm Calm - N/A   Overcast
10:53 PM -6.0 °F - -11.0 °F 79% 30.44 in 10.0 mi Calm Calm - N/A   Overcast
11:53 PM -5.1 °F - -9.9 °F 80% 30.43 in 10.0 mi Calm Calm - N/A   Overcast